Adana, Turkey

4:45 PM +03 on September 22, 2017 (GMT +0300)
Adana

Weather History for LTAF - March, 2013

Change the Weather History Date:

Tuesday, March 19, 2013

  Actual Average Record
Temperature  
Mean Temperature 53 °F -  
Max Temperature 64 °F 69 °F 77 °F (2001)
Min Temperature 42 °F 49 °F 37 °F (2012)
Degree Days  
Heating Degree Days 12    
Growing Degree Days 3 (Base 50)    
Moisture  
Dew Point 32 °F    
Average Humidity 45    
Maximum Humidity 76    
Minimum Humidity 22    
Precipitation  
Precipitation 0.00 in 0.08 in - ()
Sea Level Pressure  
Sea Level Pressure 30.02 in    
Wind  
Wind Speed 4 mph ()    
Max Wind Speed 8 mph    
Max Gust Speed -    
Visibility 4.5 miles    
Events      
Averages and records for this station are not official NWS values.
T = Trace of Precipitation, MM = Missing Value Source: Averaged Metar Reports

Daily Weather History Graph

Daily Weather History Graph

Search for Another Location

Airport or City:

Trip Planner

Search our weather history database for the weather conditions in past years. The results will help you decide how hot, cold, wet, or windy it might be!

Date:

Astronomy

Mar. 19, 2013 Rise Set
Actual Time 5:43 AM EET 5:49 PM EET
Civil Twilight 5:18 AM EET 6:15 PM EET
Nautical Twilight 4:47 AM EET 6:45 PM EET
Astronomical Twilight 4:17 AM EET 7:16 PM EET
Moon 10:24 AM EET (3/19) 12:12 AM EET (3/19)
Length of Visible Light 12h 57m
Length of Day
12h 05m
Waxing Crescent, 47% of the Moon is Illuminated
Mar 19
Waxing Crescent
Mar 19
First Quarter
Mar 27
Full
Apr 3
Last Quarter
Apr 10
New

Hourly Weather History & Observations

Time (EET) Temp. Windchill Dew Point Humidity Pressure Visibility Wind Dir Wind Speed Gust Speed Precip Events Conditions
12:20 AM 46.4 °F 44.3 °F 37.4 °F 71% 30.06 in 3.1 mi ENE 4.6 mph - N/A   Partly Cloudy
12:50 AM 44.6 °F 42.2 °F 37.4 °F 76% 30.06 in 3.1 mi NNE 4.6 mph - N/A   Partly Cloudy
1:20 AM 46.4 °F 42.9 °F 37.4 °F 71% 30.06 in 3.1 mi NNE 6.9 mph - N/A   Partly Cloudy
1:50 AM 42.8 °F 38.6 °F 33.8 °F 70% 30.06 in 3.1 mi NE 6.9 mph - N/A   Partly Cloudy
2:20 AM 44.6 °F 41.4 °F 33.8 °F 66% 30.04 in 3.1 mi NE 5.8 mph - N/A   Haze
2:50 AM 44.6 °F 40.7 °F 33.8 °F 66% 30.04 in 3.1 mi NE 6.9 mph - N/A   Haze
3:20 AM 44.6 °F 41.4 °F 33.8 °F 66% 30.04 in 3.1 mi NNE 5.8 mph - N/A   Haze
3:50 AM 46.4 °F 45.2 °F 33.8 °F 62% 30.04 in 3.1 mi NE 3.5 mph - N/A   Haze
5:50 AM 44.6 °F 42.2 °F 33.8 °F 66% 30.06 in 3.1 mi NNE 4.6 mph - N/A   Haze
6:20 AM 42.8 °F 41.1 °F 35.6 °F 76% 30.06 in 3.1 mi Variable 3.5 mph - N/A   Partly Cloudy
6:50 AM 46.4 °F 42.9 °F 37.4 °F 71% 30.06 in 3.1 mi NE 6.9 mph - N/A   Haze
7:20 AM 48.2 °F - 35.6 °F 62% 30.06 in 3.1 mi NE 8.1 mph - N/A   Haze
8:20 AM 53.6 °F - 30.2 °F 41% 30.06 in 3.1 mi NE 8.1 mph - N/A   Haze
8:50 AM 55.4 °F - 30.2 °F 38% 30.06 in 6.2 mi NNE 6.9 mph - N/A   Mostly Cloudy
9:20 AM 57.2 °F - 30.2 °F 36% 30.06 in 6.2 mi Variable 2.3 mph - N/A   Mostly Cloudy
9:50 AM 57.2 °F - 30.2 °F 36% 30.04 in 6.2 mi NE 5.8 mph - N/A   Mostly Cloudy
10:20 AM 57.2 °F - 32.0 °F 38% 30.04 in 6.2 mi NNE 6.9 mph - N/A   Mostly Cloudy
10:50 AM 59.0 °F - 30.2 °F 34% 30.04 in 6.2 mi Variable 3.5 mph - N/A   Mostly Cloudy
11:20 AM 59.0 °F - 28.4 °F 31% 30.04 in 6.2 mi NE 4.6 mph - N/A   Mostly Cloudy
11:50 AM 60.8 °F - 28.4 °F 29% 30.04 in 6.2 mi Variable 2.3 mph - N/A   Mostly Cloudy
12:20 PM 62.6 °F - 30.2 °F 30% 30.01 in 6.2 mi NNW 3.5 mph - N/A   Mostly Cloudy
12:50 PM 62.6 °F - 28.4 °F 27% 30.01 in 6.2 mi Variable 4.6 mph - N/A   Mostly Cloudy
1:20 PM 62.6 °F - 23.0 °F 22% 30.01 in 6.2 mi Variable 3.5 mph - N/A   Mostly Cloudy
1:50 PM 64.4 °F - 28.4 °F 26% 29.98 in 6.2 mi Variable 4.6 mph - N/A   Mostly Cloudy
2:20 PM 62.6 °F - 24.8 °F 24% 29.98 in 6.2 mi Variable 4.6 mph - N/A   Mostly Cloudy
2:50 PM 62.6 °F - 28.4 °F 27% 29.98 in 6.2 mi Variable 2.3 mph - N/A   Mostly Cloudy
3:20 PM 62.6 °F - 28.4 °F 27% 29.98 in 6.2 mi Variable 2.3 mph - N/A   Mostly Cloudy
3:50 PM 62.6 °F - 28.4 °F 27% 29.98 in 6.2 mi East 3.5 mph - N/A   Mostly Cloudy
4:20 PM 62.6 °F - 32.0 °F 32% 29.98 in 6.2 mi NNE 2.3 mph - N/A   Mostly Cloudy
4:50 PM 62.6 °F - 30.2 °F 30% 29.98 in 6.2 mi Variable 1.2 mph - N/A   Mostly Cloudy
5:20 PM 62.6 °F - 28.4 °F 27% 29.98 in 6.2 mi Variable 1.2 mph - N/A   Mostly Cloudy
5:50 PM 60.8 °F - 26.6 °F 27% 29.98 in 6.2 mi Calm Calm - N/A   Mostly Cloudy
6:20 PM 60.8 °F - 28.4 °F 29% 29.98 in 6.2 mi North 4.6 mph - N/A   Mostly Cloudy
6:50 PM 57.2 °F - 32.0 °F 38% 30.01 in 3.1 mi NNE 4.6 mph - N/A   Haze
7:20 PM 57.2 °F - 32.0 °F 38% 30.01 in 3.1 mi Variable 1.2 mph - N/A   Haze
7:50 PM 55.4 °F - 33.8 °F 44% 30.01 in 3.1 mi Variable 2.3 mph - N/A   Haze
8:20 PM 55.4 °F - 35.6 °F 47% 30.01 in 3.1 mi WNW 3.5 mph - N/A   Haze
8:50 PM 57.2 °F - 35.6 °F 44% 30.01 in 3.1 mi NNW 3.5 mph - N/A   Haze
9:20 PM 53.6 °F - 35.6 °F 51% 30.01 in 3.1 mi Variable 2.3 mph - N/A   Haze
9:50 PM 55.4 °F - 35.6 °F 47% 30.01 in 3.1 mi NNW 3.5 mph - N/A   Haze
10:20 PM 53.6 °F - 35.6 °F 51% 30.01 in 3.1 mi Variable 2.3 mph - N/A   Haze
10:50 PM 53.6 °F - 35.6 °F 51% 30.01 in 3.1 mi Variable 1.2 mph - N/A   Haze
11:20 PM 51.8 °F - 35.6 °F 54% 30.01 in 3.1 mi Variable 2.3 mph - N/A   Haze
11:50 PM 51.8 °F - 35.6 °F 54% 29.98 in 3.1 mi NNE 4.6 mph - N/A   Haze